Location: Newark
(48.8656°N, 2.3211°E)
Time: 20:16:56
(UTC+00:00)

Envisat - Pass Details

Date: 20 February 2019
Orbit: 764 x 766 km, 98.2° (Epoch: 21 March)

Event Time Altitude Azimuth Distance (km) Brightness Sun altitude
Rises 18:51:24 0° 180° (S) 3,221 6.2 -15.8°
Reaches altitude 10° 18:53:46 10° 186° (S) 2,299 5.5 -16.2°
Maximum altitude 18:58:40 49° 261° (W) 988 4.0 -17.0°
Drops below altitude 10° 19:03:37 10° 336° (NNW) 2,315 5.8 -17.8°
Sets 19:06:01 0° 342° (NNW) 3,246 6.5 -18.2°
